| time (UTC) | temp F | wind direction | speed MPH | gust MPH | rain 1hr in | rain 24hr in | rain mn in | humidity % | barometer mb |
| 20260831111043 | 88 | 0.0 | 0.0 | 0.00 | 0.00 | 0.00 | 45 | 1018.2 | |
| 20260831110042 | 87 | 0.0 | 0.0 | 0.00 | 0.00 | 0.00 | 48 | 1018.3 | |
| 20260831105036 | 86 | 0.0 | 0.0 | 0.00 | 0.00 | 0.00 | 47 | 1018.4 | |
| 20260831104052 | 86 | 0.0 | 0.0 | 0.00 | 0.00 | 0.00 | 44 | 1018.4 | |
| 20260831103036 | 85 | 0.0 | 0.0 | 0.00 | 0.00 | 0.00 | 49 | 1018.5 | |
| 20260831102108 | 84 | 0.0 | 0.0 | 0.00 | 0.00 | 0.00 | 50 | 1018.6 | |
| 20260831101037 | 84 | 0.0 | 0.0 | 0.00 | 0.00 | 0.00 | 49 | 1018.6 | |
| 20260831100036 | 84 | 0.0 | 0.0 | 0.00 | 0.00 | 0.00 | 50 | 1018.7 | |
| 20260831095037 | 83 | 0.0 | 0.0 | 0.00 | 0.00 | 0.00 | 52 | 1018.9 | |
| 20260831094036 | 82 | 0.0 | 0.0 | 0.00 | 0.00 | 0.00 | 48 | 1019.0 | |
| 20260831093037 | 82 | 0.0 | 0.0 | 0.00 | 0.00 | 0.00 | 50 | 1019.0 | |
| 20260831092037 | 81 | 0.0 | 0.0 | 0.00 | 0.00 | 0.00 | 55 | 1019.1 | |
| 20260831091037 | 80 | 0.0 | 0.0 | 0.00 | 0.00 | 0.00 | 56 | 1019.2 | |
| 20260831090036 | 79 | 0.0 | 0.0 | 0.00 | 0.00 | 0.00 | 63 | 1019.3 | |
| 20260831085042 | 79 | 0.0 | 0.0 | 0.00 | 0.00 | 0.00 | 63 | 1019.3 | |
| 20260831084036 | 77 | 0.0 | 0.0 | 0.00 | 0.00 | 0.00 | 59 | 1019.3 | |
| 20260831083037 | 77 | 0.0 | 0.0 | 0.00 | 0.00 | 0.00 | 59 | 1019.3 | |
| 20260831082036 | 76 | 0.0 | 0.0 | 0.00 | 0.00 | 0.00 | 56 | 1019.3 | |
| 20260831081047 | 74 | 0.0 | 0.0 | 0.00 | 0.00 | 0.00 | 56 | 1019.3 | |
| 20260831080037 | 73 | 0.0 | 0.0 | 0.00 | 0.00 | 0.00 | 58 | 1019.4 | |
| 20260831075036 | 71 | 0.0 | 0.0 | 0.00 | 0.00 | 0.00 | 61 | 1019.6 | |
| 20260831074037 | 70 | 0.0 | 0.0 | 0.00 | 0.00 | 0.00 | 62 | 1019.6 | |
| 20260831073037 | 69 | 0.0 | 0.0 | 0.00 | 0.00 | 0.00 | 65 | 1019.7 | |
| 20260831072036 | 67 | 0.0 | 0.0 | 0.00 | 0.00 | 0.00 | 67 | 1019.7 | |
| 20260831071037 | 66 | 0.0 | 0.0 | 0.00 | 0.00 | 0.00 | 71 | 1019.9 | |
| 20260831070036 | 66 | 0.0 | 0.0 | 0.00 | 0.00 | 0.00 | 71 | 1019.7 | |
| 20260831065036 | 66 | 0.0 | 0.0 | 0.00 | 0.00 | 0.00 | 73 | 1019.8 | |
| 20260831064036 | 65 | 0.0 | 0.0 | 0.00 | 0.00 | 0.00 | 74 | 1019.7 | |
| 20260831063036 | 65 | 0.0 | 0.0 | 0.00 | 0.00 | 0.00 | 73 | 1019.5 | |
| 20260831062036 | 65 | 0.0 | 0.0 | 0.00 | 0.00 | 0.00 | 74 | 1019.3 | |
| 20260831061037 | 65 | 0.0 | 0.0 | 0.00 | 0.00 | 0.00 | 77 | 1019.3 | |
| 20260831060042 | 64 | 0.0 | 0.0 | 0.00 | 0.00 | 0.00 | 80 | 1019.3 | |
| 20260831055036 | 63 | 0.0 | 0.0 | 0.00 | 0.00 | 0.00 | 84 | 1019.3 | |
| 20260831054036 | 63 | 0.0 | 0.0 | 0.00 | 0.00 | 0.00 | 80 | 1019.1 | |
| 20260831053036 | 62 | 0.0 | 0.0 | 0.00 | 0.00 | 0.00 | 83 | 1019.1 | |
| 20260831052037 | 62 | 0.0 | 0.0 | 0.00 | 0.00 | 0.00 | 80 | 1019.0 | |
| 20260831051037 | 63 | 0.0 | 0.0 | 0.00 | 0.00 | 0.00 | 80 | 1018.8 | |
| 20260831050036 | 63 | 0.0 | 0.0 | 0.00 | 0.00 | 0.00 | 78 | 1018.8 | |
| 20260831045036 | 63 | 0.0 | 0.0 | 0.00 | 0.00 | 0.00 | 78 | 1018.7 | |
| 20260831044036 | 64 | 0.0 | 0.0 | 0.00 | 0.00 | 0.00 | 86 | 1018.6 | |
| 20260831043036 | 64 | 0.0 | 0.0 | 0.00 | 0.00 | 0.00 | 81 | 1018.7 | |
| 20260831042037 | 64 | 0.0 | 0.0 | 0.00 | 0.00 | 0.00 | 78 | 1018.6 | |
| 20260831041037 | 64 | 0.0 | 0.0 | 0.00 | 0.00 | 0.00 | 72 | 1018.5 | |
| 20260831040042 | 64 | 0.0 | 0.0 | 0.00 | 0.00 | 0.00 | 74 | 1018.4 | |
| 20260831035037 | 64 | 0.0 | 0.0 | 0.00 | 0.00 | 0.00 | 75 | 1018.3 | |
| 20260831034036 | 64 | 0.0 | 0.0 | 0.00 | 0.00 | 0.00 | 76 | 1018.4 | |
| 20260831033037 | 65 | 0.0 | 0.0 | 0.00 | 0.00 | 0.00 | 73 | 1018.3 | |
| 20260831032042 | 65 | 0.0 | 0.0 | 0.00 | 0.00 | 0.00 | 76 | 1018.3 | |
| 20260831031037 | 65 | 0.0 | 0.0 | 0.00 | 0.00 | 0.00 | 74 | 1018.3 | |
| 20260831030036 | 65 | 0.0 | 0.0 | 0.00 | 0.00 | 0.00 | 72 | 1018.3 | |
| 20260831025036 | 66 | 0.0 | 0.0 | 0.00 | 0.00 | 0.00 | 76 | 1018.2 | |
| 20260831024036 | 66 | 0.0 | 0.0 | 0.00 | 0.00 | 0.00 | 74 | 1018.3 | |
| 20260831023037 | 66 | 0.0 | 0.0 | 0.00 | 0.00 | 0.00 | 72 | 1018.2 | |
| 20260831022036 | 66 | 0.0 | 0.0 | 0.00 | 0.00 | 0.00 | 79 | 1018.2 | |
| 20260831021037 | 66 | 0.0 | 0.0 | 0.00 | 0.00 | 0.00 | 74 | 1018.2 | |
| 20260831020042 | 66 | 0.0 | 0.0 | 0.00 | 0.00 | 0.00 | 75 | 1018.1 | |
| 20260831015037 | 67 | 0.0 | 0.0 | 0.00 | 0.00 | 0.00 | 75 | 1018.1 | |
| 20260831014037 | 67 | 0.0 | 0.0 | 0.00 | 0.00 | 0.00 | 74 | 1018.1 | |
| 20260831013042 | 66 | 0.0 | 0.0 | 0.00 | 0.00 | 0.00 | 79 | 1018.0 | |
| 20260831012036 | 67 | 0.0 | 0.0 | 0.00 | 0.00 | 0.00 | 83 | 1018.0 | |
| 20260831011036 | 67 | 0.0 | 0.0 | 0.00 | 0.00 | 0.00 | 75 | 1017.9 | |
| 20260831010042 | 68 | 0.0 | 0.0 | 0.00 | 0.00 | 0.00 | 73 | 1017.8 | |
| 20260831005052 | 67 | 0.0 | 0.0 | 0.00 | 0.00 | 0.00 | 79 | 1017.9 | |
| 20260831004036 | 68 | 0.0 | 0.0 | 0.00 | 0.00 | 0.00 | 76 | 1017.8 | |
| 20260831003036 | 69 | 0.0 | 0.0 | 0.00 | 0.00 | 0.00 | 75 | 1017.7 | |
| 20260831002037 | 70 | 0.0 | 0.0 | 0.00 | 0.00 | 0.00 | 71 | 1017.5 | |
| 20260831001037 | 70 | 0.0 | 0.0 | 0.00 | 0.00 | 0.00 | 59 | 1017.4 | |
| 20260831000036 | 70 | 0.0 | 0.0 | 0.00 | 0.00 | 0.00 | 58 | 1017.3 | |
| 20260830235036 | 70 | 0.0 | 0.0 | 0.00 | 0.00 | 0.00 | 63 | 1017.5 | |
| 20260830234037 | 70 | 0.0 | 0.0 | 0.00 | 0.00 | 0.00 | 82 | 1017.6 | |
| 20260830233042 | 70 | 0.0 | 0.0 | 0.00 | 0.00 | 0.00 | 81 | 1017.6 | |
| 20260830232036 | 70 | 0.0 | 0.0 | 0.00 | 0.00 | 0.00 | 83 | 1017.6 | |
| 20260830231037 | 70 | 0.0 | 0.0 | 0.00 | 0.00 | 0.00 | 79 | 1017.5 | |
| 20260830230037 | 71 | 0.0 | 0.0 | 0.00 | 0.00 | 0.00 | 74 | 1017.5 | |
| 20260830225037 | 71 | 0.0 | 0.0 | 0.00 | 0.00 | 0.00 | 82 | 1017.5 | |
| 20260830224037 | 71 | 0.0 | 0.0 | 0.00 | 0.00 | 0.00 | 79 | 1017.4 | |
| 20260830223037 | 71 | 0.0 | 0.0 | 0.00 | 0.00 | 0.00 | 74 | 1017.3 | |
| 20260830222036 | 71 | 0.0 | 0.0 | 0.00 | 0.00 | 0.00 | 75 | 1017.2 | |
| 20260830221037 | 72 | 0.0 | 0.0 | 0.00 | 0.00 | 0.00 | 74 | 1017.2 | |
| 20260830220042 | 73 | 0.0 | 0.0 | 0.00 | 0.00 | 0.00 | 78 | 1017.0 | |
| 20260830215036 | 73 | 0.0 | 0.0 | 0.00 | 0.00 | 0.00 | 74 | 1016.9 | |
| 20260830214036 | 74 | 0.0 | 0.0 | 0.00 | 0.00 | 0.00 | 72 | 1016.8 | |
| 20260830213036 | 75 | 0.0 | 0.0 | 0.00 | 0.00 | 0.00 | 69 | 1016.6 | |
| 20260830212037 | 76 | 0.0 | 0.0 | 0.00 | 0.00 | 0.00 | 67 | 1016.5 | |
| 20260830211036 | 75 | 0.0 | 0.0 | 0.00 | 0.00 | 0.00 | 69 | 1016.5 | |
| 20260830210037 | 75 | 0.0 | 0.0 | 0.00 | 0.00 | 0.00 | 67 | 1016.5 | |
| 20260830205037 | 75 | 0.0 | 0.0 | 0.00 | 0.00 | 0.00 | 66 | 1016.5 | |
| 20260830204037 | 75 | 0.0 | 0.0 | 0.00 | 0.00 | 0.00 | 64 | 1016.5 | |
| 20260830203037 | 75 | 0.0 | 0.0 | 0.00 | 0.00 | 0.00 | 59 | 1016.3 | |
| 20260830202036 | 76 | 0.0 | 0.0 | 0.00 | 0.00 | 0.00 | 57 | 1016.2 | |
| 20260830201037 | 76 | 0.0 | 0.0 | 0.00 | 0.00 | 0.00 | 56 | 1016.2 | |
| 20260830200037 | 77 | 0.0 | 0.0 | 0.00 | 0.00 | 0.00 | 54 | 1016.1 | |
| 20260830195037 | 77 | 0.0 | 0.0 | 0.00 | 0.00 | 0.00 | 52 | 1016.0 | |
| 20260830194037 | 77 | 0.0 | 0.0 | 0.00 | 0.00 | 0.00 | 43 | 1015.8 | |
| 20260830193037 | 78 | 0.0 | 0.0 | 0.00 | 0.00 | 0.00 | 53 | 1015.8 | |
| 20260830192037 | 78 | 0.0 | 0.0 | 0.00 | 0.00 | 0.00 | 52 | 1015.6 | |
| 20260830191042 | 78 | 0.0 | 0.0 | 0.00 | 0.00 | 0.00 | 44 | 1015.3 | |
| 20260830190038 | 79 | 0.0 | 0.0 | 0.00 | 0.00 | 0.00 | 50 | 1015.3 | |
| 20260830185038 | 79 | 0.0 | 0.0 | 0.00 | 0.00 | 0.00 | 46 | 1015.1 | |
| 20260830184037 | 79 | 0.0 | 0.0 | 0.00 | 0.00 | 0.00 | 46 | 1015.0 | |
| 20260830183037 | 80 | 0.0 | 0.0 | 0.00 | 0.00 | 0.00 | 46 | 1015.0 | |
| 20260830182037 | 81 | 0.0 | 0.0 | 0.00 | 0.00 | 0.00 | 37 | 1014.8 | |
| 20260830181037 | 82 | 0.0 | 0.0 | 0.00 | 0.00 | 0.00 | 42 | 1014.7 | |
| 20260830180037 | 82 | 0.0 | 0.0 | 0.00 | 0.00 | 0.00 | 36 | 1014.6 | |
| 20260830175037 | 84 | 0.0 | 0.0 | 0.00 | 0.00 | 0.00 | 39 | 1014.5 | |
| 20260830174042 | 88 | 0.0 | 0.0 | 0.00 | 0.00 | 0.00 | 34 | 1014.0 | |
| 20260830173037 | 107 | 0.0 | 0.0 | 0.00 | 0.00 | 0.00 | 19 | 1012.3 | |
| 20260830172037 | 119 | 0.0 | 0.0 | 0.00 | 0.00 | 0.00 | 12 | 1011.4 | |
| 20260830171037 | 127 | 0.0 | 0.0 | 0.00 | 0.00 | 0.00 | 10 | 1010.8 | |
| 20260830170037 | 125 | 0.0 | 0.0 | 0.00 | 0.00 | 0.00 | 11 | 1010.8 | |
| 20260830165037 | 123 | 0.0 | 0.0 | 0.00 | 0.00 | 0.00 | 11 | 1010.9 | |
| 20260830164036 | 129 | 0.0 | 0.0 | 0.00 | 0.00 | 0.00 | 10 | 1010.7 | |
| 20260830163037 | 131 | 0.0 | 0.0 | 0.00 | 0.00 | 0.00 | 10 | 1010.6 | |
| 20260830162037 | 132 | 0.0 | 0.0 | 0.00 | 0.00 | 0.00 | 9 | 1010.5 | |
| 20260830161038 | 128 | 0.0 | 0.0 | 0.00 | 0.00 | 0.00 | 12 | 1010.8 | |
| 20260830160038 | 126 | 0.0 | 0.0 | 0.00 | 0.00 | 0.00 | 10 | 1010.7 | |
| 20260830155042 | 129 | 0.0 | 0.0 | 0.00 | 0.00 | 0.00 | 11 | 1010.6 | |
| 20260830154037 | 125 | 0.0 | 0.0 | 0.00 | 0.00 | 0.00 | 12 | 1011.0 | |
| 20260830153037 | 127 | 0.0 | 0.0 | 0.00 | 0.00 | 0.00 | 11 | 1011.0 | |
| 20260830152042 | 126 | 0.0 | 0.0 | 0.00 | 0.00 | 0.00 | 11 | 1011.0 | |
| 20260830151037 | 128 | 0.0 | 0.0 | 0.00 | 0.00 | 0.00 | 12 | 1011.0 | |
| 20260830150037 | 125 | 0.0 | 0.0 | 0.00 | 0.00 | 0.00 | 12 | 1011.2 | |
| 20260830145037 | 124 | 0.0 | 0.0 | 0.00 | 0.00 | 0.00 | 12 | 1011.4 | |
| 20260830144042 | 123 | 0.0 | 0.0 | 0.00 | 0.00 | 0.00 | 15 | 1011.6 | |
| 20260830143042 | 120 | 0.0 | 0.0 | 0.00 | 0.00 | 0.00 | 16 | 1012.0 | |
| 20260830142037 | 118 | 0.0 | 0.0 | 0.00 | 0.00 | 0.00 | 15 | 1012.2 | |
| 20260830141037 | 102 | 0.0 | 0.0 | 0.00 | 0.00 | 0.00 | 26 | 1013.4 | |
| 20260830140038 | 93 | 0.0 | 0.0 | 0.00 | 0.00 | 0.00 | 33 | 1014.3 | |
| 20260830135037 | 91 | 0.0 | 0.0 | 0.00 | 0.00 | 0.00 | 33 | 1014.5 | |
| 20260830134037 | 92 | 0.0 | 0.0 | 0.00 | 0.00 | 0.00 | 31 | 1014.6 | |
| 20260830133038 | 92 | 0.0 | 0.0 | 0.00 | 0.00 | 0.00 | 32 | 1014.6 | |
| 20260830132037 | 91 | 0.0 | 0.0 | 0.00 | 0.00 | 0.00 | 32 | 1014.7 | |
| 20260830131037 | 92 | 0.0 | 0.0 | 0.00 | 0.00 | 0.00 | 31 | 1014.6 | |
| 20260830130042 | 92 | 0.0 | 0.0 | 0.00 | 0.00 | 0.00 | 31 | 1014.6 | |
| 20260830125037 | 92 | 0.0 | 0.0 | 0.00 | 0.00 | 0.00 | 32 | 1014.8 | |
| 20260830124037 | 91 | 0.0 | 0.0 | 0.00 | 0.00 | 0.00 | 34 | 1015.0 | |
| 20260830123038 | 91 | 0.0 | 0.0 | 0.00 | 0.00 | 0.00 | 34 | 1015.2 | |
| 20260830122037 | 93 | 0.0 | 0.0 | 0.00 | 0.00 | 0.00 | 31 | 1015.2 | |
| 20260830121037 | 91 | 0.0 | 0.0 | 0.00 | 0.00 | 0.00 | 34 | 1015.4 | |
| 20260830120037 | 90 | 0.0 | 0.0 | 0.00 | 0.00 | 0.00 | 34 | 1015.6 | |
| 20260830115037 | 88 | 0.0 | 0.0 | 0.00 | 0.00 | 0.00 | 34 | 1015.8 | |
| 20260830114037 | 89 | 0.0 | 0.0 | 0.00 | 0.00 | 0.00 | 35 | 1015.9 | |
| 20260830113037 | 89 | 0.0 | 0.0 | 0.00 | 0.00 | 0.00 | 34 | 1016.0 | |
| 20260830112037 | 88 | 0.0 | 0.0 | 0.00 | 0.00 | 0.00 | 38 | 1016.1 |